Regional Weather Roundup
Issued by NWS

Home | Current Version | Previous Version | Graphics & Text | Print | Product List | Glossary On
Versions: 1 2 3 4 5 6 7 8 9 10 11 12 13 14 15 16 17 18 19 20 21 22 23 24 25 26 27 28 29 30 31 32 33 34 35 36 37 38 39 40 41 42 43 44 45 46 47 48 49 50
000
ASUS43 KBIS 301902
RWRND

NORTH DAKOTA REGIONAL WEATHER ROUNDUP
NATIONAL WEATHER SERVICE BISMARCK ND
200 PM CDT THU JUL 30 2015

NOTE: "FAIR" INDICATES FEW OR NO CLOUDS BELOW 12,000 FEET WITH NO
SIGNIFICANT WEATHER AND/OR OBSTRUCTIONS TO VISIBILITY.


NDZ001>003-009>011-017-302000-
NORTHWEST NORTH DAKOTA

CITY           SKY/WX    TMP DP  RH WIND       PRES   REMARKS
WILLISTON      SUNNY     83  44  25 NW12G21   30.18F
MINOT          SUNNY     81  47  30 W24       30.11F
MINOT AFB      SUNNY     82  53  36 NW22      30.10F
$$

NDZ018>021-031>035-040>046-302000-
SOUTHWEST NORTH DAKOTA

CITY           SKY/WX    TMP DP  RH WIND       PRES   REMARKS
BISMARCK       SUNNY     83  53  35 N13G18    30.15S
DICKINSON      SUNNY     81  49  32 N8        30.19S
GARRISON         N/A     79  53  40 NW17G24   30.15S
HETTINGER ARPT SUNNY     87  42  20 NW14G24   30.21S
$$

NDZ004>008-012>016-024-026-027-054-302000-
NORTHEAST NORTH DAKOTA

CITY           SKY/WX    TMP DP  RH WIND       PRES   REMARKS
GRAND FORKS    MOSUNNY   81  54  39 W18G28    30.00S
GRND FRKS AFB  SUNNY     79  55  42 NW17G23   30.01F
DEVILS LAKE    SUNNY     79  54  41 NW20G32   30.05F
$$

NDZ022-023-025-028>030-036>039-047>053-302000-
SOUTHEAST NORTH DAKOTA

CITY           SKY/WX    TMP DP  RH WIND       PRES   REMARKS
FARGO          SUNNY     82  55  39 W21       30.04F
JAMESTOWN      MOSUNNY   80  53  39 NW14      30.09F
$$



USA.gov is the U.S. government's official web portal to all federal, state and local government web resources and services.